Stations météo

Publicité
Tarbes/Ossun, France (7621): Température de l'air & dewpoint: 18.05.2017 11:00:00 - 24.05.2017 11:00:00 (CEST)Tarbes/Ossun, France (7621): Température de l'air 5cm: 18.05.2017 11:00:00 - 24.05.2017 11:00:00 (CEST)Tarbes/Ossun, France (7621): Température de l'air -20cm & Température de l'air -100cm: 18.05.2017 11:00:00 - 24.05.2017 11:00:00 (CEST)Tarbes/Ossun, France (7621): Vitesse du vent & gusts: 18.05.2017 11:00:00 - 24.05.2017 11:00:00 (CEST)Tarbes/Ossun, France (7621): Direction du vent: 18.05.2017 11:00:00 - 24.05.2017 11:00:00 (CEST)Tarbes/Ossun, France (7621): reduced air pressure: 18.05.2017 11:00:00 - 24.05.2017 11:00:00 (CEST)Tarbes/Ossun, France (7621): visibility: 18.05.2017 11:00:00 - 24.05.2017 11:00:00 (CEST)Tarbes/Ossun, France (7621): Ensoleillement: 18.05.2017 11:00:00 - 24.05.2017 11:00:00 (CEST)Tarbes/Ossun, France (7621): Quantités de précipitations: 18.05.2017 11:00:00 - 24.05.2017 11:00:00 (CEST)
Date & Time tt [°C] td [°C] tt 5cm [°C] tt -20cm [°C] tt -100cm [°C] ff [km/h] ff [knt] fx [km/h] fx [knt] dd ppp [hPa] vv [km] sd [min] rr [mm]
24.05.2017 11:00:00 21,0 14,2 25,9 16,0 14,1 9 5 20 11 NE 1021,0 19 60 0,0
24.05.2017 10:00:00 18,6 13,2 19,7 16,1 14,1 8 4 14 8 NNE 1021,7 17 60 0,0
24.05.2017 09:00:00 16,4 12,7 12,9 16,2 14,1 4 2 7 4 NNE 1022,1 19 60 0,0
24.05.2017 08:00:00 12,7 12,1 7,8 16,3 14,1 4 2 7 4 SSE 1022,7 18 60 0,0
24.05.2017 07:00:00 9,6 8,7 7,1 16,5 14,1 6 3 10 5 S 1023,2 11 5 0,0
24.05.2017 06:00:00 10,5 9,7 7,7 16,6 14,1 5 3 9 5 S 1022,8 15 0 0,0
24.05.2017 05:00:00 10,8 10,2 8,5 16,8 14,1 8 4 13 7 S 1022,9 16 0 0,0
24.05.2017 04:00:00 9,9 9,0 7,5 16,9 14,1 8 4 10 5 SSE 1023,5 9 0 0,0
24.05.2017 03:00:00 10,0 9,2 7,1 17,0 14,1 7 4 9 5 SSW 1024,0 11 0 0,0
24.05.2017 02:00:00 11,3 10,2 7,9 17,1 14,1 5 3 6 4 WSW 1024,2 14 0 0,0
24.05.2017 01:00:00 12,0 11,1 8,8 17,2 14,1 3 1 7 4 WNW 1024,5 2,0 0 0,0
24.05.2017 00:00:00 12,7 11,6 10,4 17,2 14,1 7 4 9 5 S 1024,4 17 0 0,0
23.05.2017 23:00:00 13,5 11,9 10,9 17,3 14,1 7 4 9 5 S 1024,3 19 0 0,0
23.05.2017 22:00:00 15,4 12,5 12,0 17,2 14,1 6 3 9 5 SW 1023,5 20 0 0,0
23.05.2017 21:00:00 18,5 12,9 16,1 17,1 14,0 8 4 13 7 ESE 1022,9 44 30 0,0
23.05.2017 20:00:00 19,8 13,0 19,9 17,0 14,0 11 6 18 10 E 1022,5 31 60 0,0
23.05.2017 19:00:00 21,0 12,9 26,0 16,8 14,0 7 4 19 11 NNW 1022,3 20 60 0,0
23.05.2017 18:00:00 20,8 13,0 31,3 16,6 14,0 9 5 19 10 N 1022,4 20 55 0,0
23.05.2017 17:00:00 20,3 13,0 33,7 16,5 14,0 8 5 18 10 S 1022,9 20 58 0,0
23.05.2017 16:00:00 19,3 12,3 26,8 16,4 14,0 6 3 16 9 SSE 1023,3 33 26 0,0
23.05.2017 15:00:00 17,7 12,2 23,9 16,4 14,0 8 4 14 8 S 1023,9 20 5 0,0
23.05.2017 14:00:00 16,3 11,7 21,3 16,4 14,0 3 2 12 6 WSW 1024,6 4,7 0 0,0
23.05.2017 13:00:00 15,2 11,0 19,1 16,4 14,0 4 2 11 6 NNE 1025,1 36 0 0,0
23.05.2017 12:00:00 14,3 11,1 17,7 16,5 14,0 7 4 21 11 W 1025,4 19 0 0,0
23.05.2017 11:00:00 13,5 11,0 16,4 16,6 14,0 10 5 16 9 WNW 1025,3 17 0 0,0
23.05.2017 10:00:00 13,5 10,8 15,7 16,6 14,0 10 5 19 10 W 1025,0 39 0 0,0
23.05.2017 09:00:00 13,2 11,3 14,0 16,7 14,0 10 5 16 8 WNW 1024,7 4,3 0 0,0
23.05.2017 08:00:00 12,5 11,2 13,0 16,8 14,0 8 4 13 7 WNW 1024,5 13 0 0,0
23.05.2017 07:00:00 12,2 11,1 13,1 16,9 14,0 7 4 16 9 WNW 1023,9 10 0 0,2
23.05.2017 06:00:00 12,3 11,2 13,0 17,0 14,0 9 5 14 8 WNW 1023,5 11 0 0,0
23.05.2017 05:00:00 12,5 11,6 13,3 17,1 14,0 9 5 15 8 WNW 1023,5 6 0 0,0
23.05.2017 04:00:00 12,6 11,7 13,4 17,2 14,0 9 5 21 11 W 1023,1 4,8 0 0,0
23.05.2017 03:00:00 12,6 11,5 13,8 17,2 14,0 12 7 21 11 WNW 1022,8 7 0 0,0
23.05.2017 02:00:00 12,9 11,8 13,9 17,3 14,0 9 5 22 12 WNW 1022,9 6 0 0,0
23.05.2017 01:00:00 13,2 12,1 - - - 11 6 21 11 W 1022,9 4,5 - 0,0
23.05.2017 00:00:00 14,1 12,5 15,2 17,4 13,9 11 6 20 11 W 1022,3 8 0 0,0
22.05.2017 23:00:00 14,8 12,7 15,2 17,5 14,0 10 5 20 11 W 1022,1 10 0 0,0
22.05.2017 22:00:00 14,8 12,7 14,5 17,4 13,9 13 7 29 16 W 1021,4 11 0 0,0
22.05.2017 21:00:00 17,1 13,2 17,3 17,4 13,9 18 10 31 17 W 1019,9 15 55 0,0
22.05.2017 20:00:00 20,7 14,3 22,1 17,2 13,9 21 11 36 19 WNW 1018,6 19 38 0,0
22.05.2017 19:00:00 22,3 13,9 24,2 17,1 13,9 26 14 39 21 WNW 1017,5 19 35 0,0
22.05.2017 18:00:00 22,8 13,8 25,3 16,9 14,0 23 12 39 21 WNW 1017,2 46 10 0,0
22.05.2017 17:00:00 25,1 15,4 35,8 16,6 14,0 26 14 51 28 WNW 1016,3 20 60 0,0
22.05.2017 16:00:00 25,5 15,8 30,5 16,4 13,9 26 14 40 21 NW 1016,3 20 35 0,0
22.05.2017 15:00:00 25,7 15,4 29,3 16,2 14,0 22 12 39 21 NNW 1015,9 20 36 0,0
22.05.2017 14:00:00 26,1 14,2 41,5 16,0 13,9 17 9 36 19 NW 1015,5 50 60 0,0
22.05.2017 13:00:00 25,9 12,7 40,6 15,9 13,9 12 7 29 16 NNW 1015,4 19 60 0,0
22.05.2017 12:00:00 25,6 13,4 32,6 15,8 13,9 12 7 38 21 NW 1015,1 19 56 0,0
22.05.2017 11:00:00 24,6 13,5 25,1 15,8 13,9 5 3 13 7 NNW 1014,7 20 48 0,0
22.05.2017 10:00:00 22,3 13,6 19,6 15,8 14,0 8 5 17 9 SW 1014,9 56 35 0,0
22.05.2017 09:00:00 19,9 13,1 16,1 15,9 14,0 10 6 20 11 SSW 1015,1 60 3 0,0
22.05.2017 08:00:00 17,4 12,5 14,0 15,9 13,9 12 7 24 13 S 1015,1 60 0 0,0
22.05.2017 07:00:00 16,4 11,8 12,5 16,0 14,0 9 5 16 9 SE 1014,6 59 0 0,0
22.05.2017 06:00:00 13,2 11,1 10,6 16,1 14,0 4 2 8 5 S 1012,8 60 0 0,0
22.05.2017 05:00:00 13,4 10,4 10,5 16,2 14,0 4 2 7 4 SSE 1012,6 60 0 0,0
22.05.2017 04:00:00 13,1 10,5 10,9 16,2 14,0 5 3 10 5 SSE 1012,9 60 0 0,0
22.05.2017 03:00:00 13,8 11,1 12,3 16,3 14,0 6 3 8 4 SW 1012,8 60 0 0,0
22.05.2017 02:00:00 14,3 11,3 11,5 16,4 14,0 5 3 9 5 S 1013,1 60 0 0,0
22.05.2017 01:00:00 14,1 11,3 12,0 16,4 14,0 6 4 11 6 SSW 1013,6 60 0 0,0
22.05.2017 00:00:00 16,2 11,1 14,2 16,4 14,0 2 1 11 6 ENE 1013,8 60 0 0,0
21.05.2017 23:00:00 17,7 11,7 14,6 16,3 14,0 3 2 15 8 SSW 1013,7 60 0 0,0
21.05.2017 22:00:00 19,7 9,0 14,9 16,3 14,0 7 4 13 7 E 1013,8 60 0 0,0
21.05.2017 21:00:00 21,0 8,3 16,4 16,1 14,0 6 3 20 11 ENE 1014,0 60 0 0,0
21.05.2017 20:00:00 22,4 10,2 21,0 15,9 14,0 5 3 20 11 NE 1014,2 60 0 0,0
21.05.2017 19:00:00 24,0 9,6 25,1 15,6 14,0 10 5 26 14 ENE 1014,4 56 24 0,0
21.05.2017 18:00:00 24,8 10,6 30,2 15,3 14,0 11 6 31 17 ENE 1014,8 56 49 0,0
21.05.2017 17:00:00 25,2 11,0 31,6 14,9 14,0 11 6 26 14 ENE 1015,1 19 37 0,0
21.05.2017 16:00:00 25,2 11,7 43,5 14,6 14,0 11 6 30 16 ENE 1016,0 60 60 0,0
21.05.2017 15:00:00 23,8 9,0 43,0 14,3 14,0 13 7 27 15 NE 1016,9 60 60 0,0
21.05.2017 14:00:00 22,8 9,6 33,0 14,2 14,0 13 7 26 14 ENE 1017,8 60 52 0,0
21.05.2017 13:00:00 21,0 8,3 33,8 14,1 14,0 11 6 24 13 ENE 1018,8 19 60 0,0
21.05.2017 12:00:00 19,5 9,4 25,8 14,0 14,0 10 6 22 12 ENE 1019,5 60 55 0,0
21.05.2017 11:00:00 17,4 8,5 22,3 14,1 14,0 8 4 20 11 NE 1020,4 49 35 0,0
21.05.2017 10:00:00 14,0 9,4 14,5 14,2 14,0 5 3 13 7 N 1021,1 58 60 0,0
21.05.2017 09:00:00 9,6 8,7 9,1 14,3 14,0 2 1 5 3 WNW 1022,3 60 51 0,0
21.05.2017 08:00:00 7,1 6,8 4,2 14,4 14,0 2 1 5 3 S 1022,6 20 60 0,0
21.05.2017 07:00:00 5,0 4,6 2,7 14,6 14,1 5 3 8 4 SSE 1023,0 46 6 0,0
21.05.2017 06:00:00 5,0 4,6 2,4 14,7 14,1 6 4 8 4 S 1023,3 37 0 0,0
21.05.2017 05:00:00 4,4 3,5 2,1 14,8 14,0 5 3 7 4 SSW 1023,7 20 0 0,0
21.05.2017 04:00:00 4,9 4,0 2,3 15,0 14,1 3 2 6 4 SSW 1024,2 39 0 0,0
21.05.2017 03:00:00 6,2 5,5 2,5 15,1 14,1 3 1 6 4 WNW 1024,6 17 0 0,0
21.05.2017 02:00:00 6,5 5,6 3,9 15,2 14,1 5 3 10 5 S 1025,5 16 0 0,0
21.05.2017 01:00:00 8,5 7,6 4,0 15,3 14,1 4 2 8 4 SE 1025,8 56 0 0,0
21.05.2017 00:00:00 8,1 6,9 5,4 15,4 14,1 4 2 10 6 SSE 1026,3 18 0 0,0
20.05.2017 23:00:00 9,4 7,2 6,8 15,4 14,1 7 4 10 5 S 1026,5 60 0 0,0
20.05.2017 22:00:00 11,6 8,4 8,0 15,4 14,1 4 2 9 5 SSW 1025,8 60 0 0,0
20.05.2017 21:00:00 15,5 7,8 12,1 15,4 14,1 4 2 9 5 SE 1025,1 60 38 0,0
20.05.2017 20:00:00 17,1 8,0 17,9 15,3 14,1 3 2 10 6 NW 1024,7 20 15 0,0
20.05.2017 19:00:00 16,5 7,9 19,4 15,2 14,1 6 4 19 11 W 1025,1 18 0 0,0
20.05.2017 18:00:00 16,6 8,3 21,3 15,1 14,1 14 7 23 13 WNW 1025,0 9 0 0,0
20.05.2017 17:00:00 16,8 8,5 22,1 15,0 14,1 16 9 33 18 WNW 1025,1 42 0 0,0
20.05.2017 16:00:00 16,8 8,5 22,9 14,8 14,1 15 8 39 21 WNW 1025,1 8 0 0,0
20.05.2017 15:00:00 16,4 7,9 22,4 14,7 14,1 22 12 42 23 WNW 1025,2 3,7 6 0,0
20.05.2017 14:00:00 16,2 7,9 21,7 14,6 14,1 28 15 49 26 WNW 1025,0 2,7 27 0,0
20.05.2017 13:00:00 15,8 9,2 24,1 14,6 14,1 31 17 49 26 WNW 1025,2 2,8 49 0,0
20.05.2017 12:00:00 15,3 9,9 26,2 14,5 14,1 31 17 45 24 WNW 1025,0 12 52 0,0
20.05.2017 11:00:00 14,8 9,8 16,6 14,6 14,1 25 14 42 23 W 1024,8 60 26 0,0
20.05.2017 10:00:00 13,0 8,5 12,4 14,6 14,0 16 8 28 15 W 1024,8 50 5 0,0
20.05.2017 09:00:00 11,9 7,6 11,8 14,7 14,1 20 11 32 17 W 1024,8 17 12 0,0
20.05.2017 08:00:00 11,8 6,1 9,0 14,8 14,1 13 7 23 12 WSW 1023,9 60 5 0,0
20.05.2017 07:00:00 8,5 4,7 5,8 14,9 14,1 8 4 17 9 S 1024,0 60 1 0,0
20.05.2017 06:00:00 7,7 4,3 6,2 15,1 14,1 11 6 19 10 SSE 1023,8 60 0 0,0
20.05.2017 05:00:00 7,3 4,3 6,5 15,2 14,1 11 6 15 8 S 1024,2 60 0 0,0
20.05.2017 04:00:00 7,5 4,8 5,3 15,3 14,1 10 6 15 8 SSE 1024,0 60 0 0,0
20.05.2017 03:00:00 6,5 4,2 5,1 15,4 14,1 11 6 13 7 S 1024,5 60 0 0,0
20.05.2017 02:00:00 6,9 4,6 5,2 15,5 14,1 9 5 13 7 S 1024,5 60 0 0,0
20.05.2017 01:00:00 6,8 4,8 5,9 15,6 14,1 9 5 17 9 SW 1024,7 60 0 0,0
20.05.2017 00:00:00 7,9 5,0 6,3 15,7 14,1 8 4 17 9 SW 1024,8 60 0 0,0
19.05.2017 23:00:00 10,0 5,4 7,5 15,8 14,1 11 6 19 11 WSW 1024,7 60 0 0,0
19.05.2017 22:00:00 9,8 6,0 7,7 15,8 14,1 11 6 24 13 SW 1024,3 60 0 0,0
19.05.2017 21:00:00 12,3 6,1 10,9 15,7 14,1 16 8 36 20 WSW 1023,4 56 36 0,0
19.05.2017 20:00:00 13,3 6,2 14,0 15,7 14,1 23 13 42 23 W 1022,8 52 23 0,0
19.05.2017 19:00:00 13,6 6,7 16,4 15,6 14,1 19 10 46 25 W 1022,4 54 11 0,0
19.05.2017 18:00:00 14,1 6,2 17,9 15,4 14,1 27 15 57 31 W 1021,9 27 44 0,0
19.05.2017 17:00:00 15,0 7,3 25,9 15,2 14,1 37 20 59 32 WNW 1021,2 19 60 0,0
19.05.2017 16:00:00 15,8 7,5 28,4 15,1 14,1 35 19 51 27 WNW 1020,9 25 56 0,0
19.05.2017 15:00:00 15,5 8,5 27,1 15,0 14,1 29 16 49 27 W 1021,0 31 53 0,0
19.05.2017 14:00:00 15,2 7,0 28,3 14,8 14,1 27 15 46 25 W 1020,7 37 52 0,0
19.05.2017 13:00:00 13,8 6,9 24,1 14,8 14,1 24 13 41 22 W 1021,1 44 44 0,0
19.05.2017 12:00:00 13,7 5,8 17,9 14,8 14,1 26 14 43 23 W 1021,3 52 49 0,0
19.05.2017 11:00:00 12,2 6,2 17,2 14,8 14,1 23 12 36 19 W 1021,6 58 32 0,0
19.05.2017 10:00:00 12,1 6,2 14,5 14,9 14,1 17 9 31 17 W 1021,3 59 49 0,0
19.05.2017 09:00:00 11,0 6,3 8,4 15,0 14,0 14 8 29 16 W 1021,4 60 45 0,0
19.05.2017 08:00:00 7,5 6,1 6,5 15,1 14,1 8 4 14 8 SSE 1021,6 48 2 0,0
19.05.2017 07:00:00 6,5 5,0 5,6 15,2 14,1 8 4 23 12 SSW 1020,9 60 0 0,0
19.05.2017 06:00:00 7,2 5,3 6,3 15,3 14,0 11 6 27 14 SW 1020,5 60 0 0,0
19.05.2017 05:00:00 8,2 6,7 7,3 15,4 14,0 20 11 40 21 WSW 1020,6 60 0 0,0
19.05.2017 04:00:00 7,4 5,5 6,5 15,5 14,0 7 4 16 8 SSW 1020,6 60 0 0,0
19.05.2017 03:00:00 8,4 6,4 8,5 15,6 14,0 9 5 27 15 SW 1020,4 60 0 0,0
19.05.2017 02:00:00 8,6 6,7 9,5 15,8 14,0 17 9 33 18 SW 1020,7 60 0 0,0
19.05.2017 01:00:00 9,0 7,1 9,5 15,9 14,0 13 7 20 11 SW 1021,0 60 0 0,0
19.05.2017 00:00:00 8,9 7,0 9,0 16,0 14,0 14 8 29 16 SW 1021,2 60 0 0,0
18.05.2017 23:00:00 8,1 7,0 7,4 16,1 14,0 7 4 14 8 S 1021,6 60 0 0,0
18.05.2017 22:00:00 7,7 6,5 8,1 16,2 14,0 12 6 16 8 S 1021,1 60 0 0,0
18.05.2017 21:00:00 8,7 6,7 9,8 16,3 14,0 10 6 23 12 S 1020,8 60 12 0,2
18.05.2017 20:00:00 8,3 6,4 9,8 16,4 13,9 14 8 31 17 WSW 1020,7 12 0 1,0
18.05.2017 19:00:00 8,8 6,4 10,9 16,5 13,9 17 9 35 19 WSW 1020,1 36 0 0,8
18.05.2017 18:00:00 9,3 7,4 11,9 16,6 13,9 22 12 36 20 W 1019,6 18 0 0,6
18.05.2017 17:00:00 9,5 7,9 12,3 16,8 13,9 16 8 35 19 WSW 1019,3 36 0 0,6
18.05.2017 16:00:00 9,8 8,1 12,6 16,9 13,9 22 12 45 24 W 1019,0 34 0 0,6
18.05.2017 15:00:00 10,1 8,7 12,4 17,0 13,9 21 12 54 29 W 1018,5 13 0 1,4
18.05.2017 14:00:00 10,7 9,3 12,2 17,1 13,9 27 14 53 29 W 1017,8 16 0 1,6
18.05.2017 13:00:00 11,0 9,7 12,3 17,2 13,9 27 15 66 36 W 1017,2 8 0 2,0
18.05.2017 12:00:00 12,5 11,1 13,9 17,3 13,9 39 21 62 33 W 1015,4 20 0 1,2
18.05.2017 11:00:00 13,5 12,4 13,7 17,3 13,9 19 10 30 16 W 1014,6 16 0 6,3

tt = Température de l'air
td = dewpoint
tt 5cm = Température de l'air 5cm
tt -20cm = Température de l'air -20cm
tt -100cm = Température de l'air -100cm
ff = Vitesse du vent
fx = gusts
dd = Direction du vent
ppp = reduced air pressure
vv = visibility
sd = Ensoleillement
rr = Quantités de précipitations

stations d'obs. à proximité